sat.trackr.live / text

‹ back to catalog

STARLINK-3068

NORAD 49154 · 2021-082AA

PAYLOAD ACTIVE UNKNOWN

§ Identity

Operator
Country
US
Launch date
2021-09-14
Launch site
AFWTR
Launch vehicle
Mass (kg)
RCS (m²)

Purposes: comms

External: N2YO · Heavens-Above · Gunter

§ Orbital elements

Epoch: 2026-09-20T02:28:10.986816Z

Period
96.16 min
Inclination
69.9990°
Eccentricity
0.0002794
Mean motion
14.97527773 rev/d
Perigee alt
572.6 km
Apogee alt
576.5 km
Semi-major
6,952.7 km
B*
1.4618e-4
RAAN
145.6641°
Arg perigee
268.5025°
Mean anomaly
91.5814°
Rev number
27,663

§ Raw data

STARLINK-30681 49154U 21082AA  26263.10290494  .00001617  00000+0  14618-3 0  99912 49154  69.9990 145.6641 0002794 268.5025  91.5814 14.97527773276638

JSON: /api/v1/satellites/49154 · /tle

For live sub-satellite position, see the globe view (requires WebGL).

§ Visibility from observer

Set your observer location to see the next 7 days of passes ≥ 10°. The values pass through the URL so the page stays shareable.

No JS? Fill the form by hand. The geolocation button needs JavaScript.